Theta_e
309 309 309 308 302 301 300 300 301 301 302 302 302 301 301 300 300 300 301 302 303 305 306 316 317 313 314 318 318 321 321 320 320 318 319 318 322 329 335 345 347 347 349 348 347 346 350
309 309 309 307 302 301 301 301 301 302 302 303 302 302 301 301 300 301 303 305 307 308 308 318 320 316 316 319 321 323 324 322 324 320 319 318 324 329 333 338 345 345 347 348 346 347 348
308 308 308 306 303 302 301 301 301 303 303 302 302 302 301 301 301 302 307 308 308 309 309 317 321 317 317 314 321 324 324 323 322 319 317 319 323 325 333 338 341 344 346 350 350 350 352
308 308 308 305 303 302 302 302 303 303 303 302 302 302 301 301 301 303 307 309 310 311 310 319 320 320 320 318 322 322 322 327 321 320 318 320 324 322 325 334 339 342 344 345 347 347 348
308 308 307 304 303 303 303 304 304 303 303 303 302 302 302 301 301 303 308 310 311 312 314 318 321 321 323 324 323 324 323 325 324 323 321 320 321 322 323 331 336 339 345 344 347 344 347
308 307 305 305 304 304 303 303 303 303 302 302 302 302 302 302 301 304 307 310 310 319 322 321 322 322 322 325 327 326 324 322 321 323 323 322 322 324 322 328 336 340 343 342 346 346 346
307 305 304 304 303 302 303 303 302 302 302 302 302 302 302 302 302 307 308 310 308 314 314 308 310 318 312 324 321 326 325 324 319 325 326 326 326 327 324 327 331 340 343 343 341 344 343
304 304 304 304 302 302 302 302 302 302 302 302 302 302 302 302 302 308 311 309 307 308 307 309 310 311 312 313 317 321 326 324 321 325 326 329 330 327 328 328 329 337 342 343 340 339 341
304 304 303 303 302 302 302 303 302 302 301 302 302 302 303 303 304 310 310 308 308 308 307 309 310 311 311 312 314 317 321 324 321 324 326 330 332 331 331 329 330 334 338 340 340 336 336
303 303 302 302 302 302 302 302 301 301 301 302 303 304 304 304 307 308 311 309 308 308 308 313 315 315 315 313 314 318 321 323 323 323 326 329 331 333 333 331 331 335 336 339 340 338 342
302 302 302 302 302 302 302 301 301 302 303 303 304 304 305 305 307 310 310 309 308 309 313 318 314 315 312 313 314 318 319 321 322 323 327 330 333 333 333 333 332 335 334 336 338 339 338
302 302 302 302 302 302 302 303 304 304 303 303 303 305 306 307 308 310 309 308 308 310 314 313 312 311 310 311 316 320 318 322 321 322 328 329 333 332 332 332 332 333 333 331 336 338 340
302 302 302 302 303 303 304 304 303 302 302 302 303 307 308 307 310 309 309 308 310 311 312 311 308 308 308 310 313 314 317 322 325 323 329 329 330 333 332 332 331 332 330 330 330 334 337
302 302 302 303 303 303 303 302 302 301 301 301 302 309 311 311 311 311 308 308 313 312 309 309 308 308 307 309 311 312 313 320 325 324 326 329 331 332 333 330 330 331 330 327 332 333 333
301 302 302 302 303 303 302 302 301 301 300 301 303 310 312 313 313 310 309 311 312 309 309 308 307 306 306 307 310 311 313 317 324 327 325 325 327 334 334 329 326 327 326 323 323 326 326
301 301 302 302 302 302 302 302 302 301 300 301 306 311 314 312 311 310 310 312 311 309 308 307 306 307 307 308 311 311 313 316 318 323 318 323 322 331 333 333 327 324 323 323 322 324 326
301 301 301 302 302 302 302 301 302 301 300 301 308 313 311 311 311 311 311 312 311 309 309 309 307 306 306 308 311 312 314 315 319 319 318 321 322 322 327 332 332 324 324 323 321 322 325
301 301 301 301 301 302 302 301 301 302 302 302 308 312 313 310 312 311 311 310 308 308 308 309 309 308 308 308 308 309 311 313 316 316 317 319 323 323 323 326 330 327 324 323 324 324 323
301 301 301 301 301 301 301 301 301 302 302 306 309 312 311 309 311 312 311 311 309 308 307 309 309 309 308 309 312 314 315 314 315 315 316 319 322 328 325 324 325 328 325 324 323 324 325
300 301 301 301 301 301 302 302 302 302 301 305 310 311 310 309 308 309 310 311 311 310 310 309 308 308 309 309 310 313 311 314 313 313 317 321 322 323 329 326 327 329 328 325 324 326 325
300 300 300 300 301 302 302 301 303 303 302 306 309 310 308 309 308 308 309 309 312 312 310 309 309 308 310 309 310 311 311 311 310 313 315 315 319 324 329 329 330 331 328 327 325 325 329
300 300 300 300 300 301 301 302 305 305 304 307 309 310 307 307 307 308 309 310 310 309 310 310 308 308 307 310 310 309 308 309 311 312 313 312 319 324 333 332 331 333 332 328 327 326 326
300 299 299 301 303 305 304 306 306 306 306 307 308 307 306 307 307 309 310 310 311 310 310 310 310 307 308 307 307 307 307 307 308 313 312 311 316 322 331 332 334 336 334 329 328 328 327
299 302 304 303 303 305 305 306 306 306 306 307 307 306 305 308 308 308 308 309 310 310 311 310 310 310 307 307 307 307 307 307 307 309 310 312 313 319 328 332 337 333 333 333 329 329 327
303 304 302 302 304 306 307 307 307 306 306 307 307 305 304 306 307 308 310 310 309 310 310 310 308 308 308 308 308 309 310 311 311 310 310 311 313 318 327 332 333 334 329 329 333 339 336
303 302 302 303 305 307 306 306 307 307 307 307 308 308 303 305 307 308 309 308 310 311 310 309 309 308 309 310 310 312 313 314 316 312 311 312 314 319 324 333 338 328 326 324 328 338 330
302 302 302 305 306 306 306 307 307 307 307 307 308 308 303 305 304 306 310 310 309 310 311 309 309 309 309 311 312 315 316 315 316 317 314 315 316 318 320 325 331 322 322 328 337 335 326
301 302 304 306 306 306 306 307 307 307 307 308 309 309 306 305 305 306 307 309 309 310 312 310 310 310 311 313 314 314 317 314 314 315 316 318 319 319 319 324 330 320 320 322 327 324 323
302 304 307 306 307 306 307 307 307 307 308 308 309 309 308 304 307 306 306 307 308 308 309 310 310 309 309 310 311 310 311 315 312 318 314 317 315 316 317 318 318 318 318 318 318 319 319
Wind_Speed
23 23 24 25 27 28 28 29 30 31 33 34 36 38 39 38 38 38 36 30 26 28 25 17 13 7 1 5 12 11 16 7 27 33 25 17 17 15 18 16 18 17 15 16 9 6 19
23 24 24 25 27 28 29 29 30 32 34 35 37 39 41 40 39 39 34 30 30 29 23 14 10 4 4 9 15 17 9 13 25 32 24 19 10 13 11 19 17 15 16 15 11 11 16
23 23 24 25 27 28 30 31 32 34 36 39 41 42 43 44 42 38 34 34 36 34 19 13 8 9 9 19 10 7 26 21 26 34 17 27 27 15 16 12 20 18 16 17 15 18 8
22 24 24 26 28 29 30 32 33 35 37 39 41 42 44 44 41 35 35 37 41 24 11 11 8 11 9 20 18 28 17 21 25 29 28 24 28 15 17 10 17 17 17 14 14 15 14
23 24 25 27 28 30 32 33 34 36 37 38 39 41 43 43 38 34 35 37 33 20 3 1 8 8 11 16 10 28 23 23 28 25 29 25 21 15 15 14 13 11 13 12 9 24 8
23 24 25 26 29 30 31 33 34 35 36 38 41 43 45 46 39 31 34 36 21 3 2 4 7 4 9 5 9 19 24 19 14 13 15 16 9 15 15 12 16 12 7 10 15 17 16
23 24 25 27 29 30 32 33 33 36 40 42 44 46 46 46 42 29 38 16 9 2 6 11 19 21 40 19 30 20 27 19 12 15 17 18 11 21 23 18 12 13 17 15 13 15 10
24 25 26 28 30 31 32 34 37 40 42 43 45 47 45 45 40 25 23 10 13 17 20 20 27 27 37 29 14 18 26 17 17 21 16 12 24 19 15 15 19 19 21 19 14 16 11
24 25 26 28 29 30 32 35 39 41 43 45 46 47 46 43 31 18 29 23 29 29 9 20 13 13 17 13 17 29 10 21 16 22 24 24 12 20 20 21 23 22 22 18 15 15 17
24 26 27 29 30 32 35 38 40 41 42 43 46 47 47 42 11 29 15 30 31 28 5 9 2 6 5 10 9 25 26 18 19 23 23 25 20 25 25 25 22 21 19 21 21 13 6
25 26 27 28 30 33 36 38 40 41 43 44 44 45 45 26 18 8 23 33 32 20 5 10 15 12 28 3 14 13 32 20 25 22 20 24 23 28 26 26 23 16 14 22 23 15 7
23 25 26 28 30 32 35 38 40 43 45 47 50 47 40 14 13 20 26 33 23 2 5 9 18 22 25 23 20 18 14 17 15 24 22 25 14 19 27 23 19 15 17 15 17 13 14
22 24 26 28 30 32 34 36 40 44 48 51 53 47 21 11 6 19 26 13 4 4 9 11 21 22 21 20 26 25 22 18 18 20 25 19 30 24 18 21 21 19 11 9 12 13 13
22 24 25 27 29 31 34 36 40 44 48 52 55 34 13 17 21 21 19 8 5 9 12 17 18 18 16 22 19 27 29 18 22 23 5 20 20 31 22 22 16 22 20 10 15 9 10
22 23 24 26 28 30 32 36 40 44 49 52 54 24 15 16 18 16 4 4 6 10 14 16 19 16 18 22 17 22 21 15 11 19 23 14 28 16 28 20 20 19 20 12 3 6 3
22 23 24 25 27 29 31 34 37 42 46 50 37 13 11 4 12 13 4 11 16 13 14 12 14 9 18 15 15 15 12 19 27 26 32 26 17 20 21 26 21 18 12 13 9 9 10
22 23 24 25 26 28 30 32 34 38 43 44 17 7 26 28 18 6 7 7 14 16 15 12 17 13 12 12 11 14 8 25 16 29 30 20 13 30 16 25 28 12 12 15 6 6 6
22 23 24 26 27 28 29 31 32 35 38 31 10 5 21 35 5 6 9 17 15 15 11 10 12 15 12 18 12 12 21 14 25 25 28 18 8 17 27 15 24 16 15 15 10 11 5
23 24 25 26 27 28 27 28 29 30 30 18 6 5 18 26 5 7 14 17 18 16 9 6 5 6 12 15 6 7 13 12 13 18 12 15 6 5 18 16 20 28 22 18 8 6 9
25 26 27 27 27 26 26 25 26 26 25 19 4 4 4 6 10 14 13 13 17 21 18 3 5 9 10 8 5 9 10 10 19 21 31 23 13 17 11 15 7 12 24 21 16 10 10
26 27 27 27 27 26 25 24 23 23 22 12 2 4 6 5 9 15 14 13 14 10 12 13 5 7 7 7 8 7 15 16 17 19 17 10 10 16 14 12 9 15 25 23 20 16 15
26 26 27 27 27 26 26 25 21 18 19 4 4 3 2 7 10 15 11 10 12 17 15 14 15 9 7 7 9 14 6 9 7 13 14 16 8 15 5 9 11 17 18 26 20 19 16
26 27 27 28 27 26 26 24 20 15 10 6 4 2 1 3 6 9 7 10 13 19 10 19 21 9 9 11 10 12 15 10 14 6 13 14 9 9 4 4 5 5 17 17 20 18 19
27 28 28 28 27 25 25 23 19 14 9 9 12 1 2 4 4 8 18 18 17 17 17 21 11 17 15 10 11 15 15 14 15 9 8 22 18 4 5 5 2 7 8 9 16 13 14
28 29 29 29 27 25 24 22 19 16 12 13 15 5 3 3 6 11 12 11 16 14 14 19 12 13 20 7 9 8 9 10 13 15 14 17 11 5 3 0 3 4 13 13 2 11 24
30 30 30 29 26 24 24 21 19 15 13 13 16 14 4 1 5 8 9 11 10 8 9 13 15 14 11 5 4 3 3 6 3 6 18 15 8 3 4 4 3 18 26 29 15 11 21
31 32 31 27 25 24 23 20 18 15 12 11 8 11 4 2 4 3 3 4 6 7 6 12 13 7 5 2 3 2 3 4 4 9 9 7 4 3 5 3 6 19 28 16 8 5 14
32 32 30 27 26 24 21 19 17 14 10 10 8 9 9 3 5 7 6 7 6 4 4 9 7 4 4 7 4 3 4 4 3 7 11 5 2 1 2 4 4 16 16 18 3 8 11
33 31 26 25 24 23 20 18 15 13 11 8 4 5 15 2 4 12 20 26 22 17 9 3 5 9 4 4 4 3 5 2 10 4 11 5 2 3 7 5 4 7 14 14 14 9 10
Wind_Direction
23 20 17 15 14 12 10 7 6 4 1 358 355 353 351 347 344 341 338 336 330 329 327 321 318 281 172 218 245 220 290 291 196 194 202 207 224 220 219 224 234 239 177 210 223 155 199
21 18 15 13 12 9 8 7 5 2 360 357 354 352 350 347 343 341 338 334 329 326 325 314 301 200 219 246 249 248 247 162 177 187 203 209 225 224 229 235 236 246 189 191 147 318 188
18 16 12 11 10 8 7 6 4 1 359 357 355 352 349 346 344 341 335 330 328 321 310 304 267 204 246 236 244 210 202 184 180 188 203 215 227 242 226 252 243 256 259 188 183 176 189
17 14 12 12 11 8 6 4 2 0 358 356 353 350 348 345 343 338 331 331 333 315 289 292 231 195 252 254 267 277 220 182 187 197 211 218 232 248 259 257 261 255 256 237 192 226 197
13 13 11 10 10 7 4 2 0 359 357 355 353 350 348 344 341 335 328 330 329 328 295 182 146 214 261 306 222 241 221 191 187 203 205 223 230 236 251 240 255 255 245 230 198 211 189
11 11 11 9 7 6 4 2 360 358 356 356 354 352 349 345 341 330 323 329 334 32 117 178 261 284 261 257 221 215 229 229 186 198 189 209 222 229 236 221 222 232 232 235 219 236 214
10 11 10 9 7 6 3 0 359 359 357 355 353 352 349 345 340 329 330 340 358 286 328 274 269 269 294 280 320 196 204 218 217 189 209 202 212 222 218 224 235 235 243 230 243 227 215
11 10 8 8 7 4 2 358 359 359 356 354 352 350 349 342 338 332 347 348 353 304 301 256 254 254 258 266 279 288 202 193 218 204 206 198 225 222 216 218 233 235 244 251 231 239 224
8 7 7 6 4 2 360 359 358 356 354 353 351 348 347 339 337 346 337 346 333 327 296 302 246 243 244 222 233 256 249 203 212 210 205 209 219 218 214 219 221 231 234 245 244 243 243
9 6 6 3 1 360 359 358 356 353 351 349 346 346 344 340 342 332 319 328 330 323 308 286 6 12 11 227 264 232 247 220 224 222 211 227 228 200 223 220 219 223 233 245 253 260 187
7 6 4 1 1 1 359 358 357 353 349 346 344 339 338 339 296 301 305 322 322 310 303 16 6 359 349 116 309 198 224 244 213 219 208 217 197 226 212 221 217 227 227 238 250 258 256
7 4 1 1 1 0 359 358 356 353 349 346 342 336 336 335 309 288 312 320 309 232 246 325 15 355 349 339 328 311 255 235 227 231 234 230 209 220 226 218 224 221 222 247 246 248 253
2 1 360 359 359 358 358 356 354 352 348 345 340 339 327 288 253 307 319 318 302 237 318 360 4 348 331 329 341 353 339 240 215 217 234 237 226 221 227 220 203 218 205 229 236 229 233
356 357 357 356 356 356 355 354 352 350 348 346 338 338 317 284 280 292 319 308 253 304 349 355 351 327 354 354 344 343 339 326 225 228 206 229 234 216 215 226 195 207 216 209 216 210 232
350 351 351 352 352 352 352 352 350 350 348 347 338 335 303 300 257 296 315 287 307 7 4 347 339 339 343 342 343 347 335 291 322 234 232 219 241 204 227 212 218 204 217 216 260 211 248
343 344 346 348 348 349 350 351 351 350 348 347 333 301 279 303 308 290 277 264 314 4 348 330 324 343 334 355 351 337 328 292 340 349 350 246 269 224 220 229 230 214 175 215 213 201 221
337 338 340 343 343 345 346 349 349 350 349 351 328 316 30 358 339 290 253 293 309 337 349 346 329 317 318 342 345 325 276 308 346 338 331 313 243 250 240 209 219 200 195 202 186 193 183
332 334 336 338 339 341 344 345 347 351 353 357 308 307 336 356 329 337 355 340 344 333 342 9 348 341 346 333 297 302 287 278 323 328 317 290 293 236 240 253 211 225 212 197 206 228 223
330 332 334 336 336 339 342 342 344 351 357 339 302 282 355 345 27 347 338 335 324 349 355 29 317 310 323 315 337 334 328 312 321 313 323 327 321 270 248 253 265 214 202 213 182 149 218
328 330 331 332 334 337 339 341 342 348 352 346 290 309 359 329 357 353 334 322 337 338 338 44 296 294 323 327 360 287 285 294 314 296 302 307 255 243 256 231 224 220 204 200 204 202 213
326 327 329 331 334 337 338 337 340 344 348 341 319 349 22 318 332 317 308 322 344 326 315 310 272 319 337 300 292 297 324 330 316 304 309 298 265 256 265 270 278 269 201 195 206 210 198
326 327 328 331 333 334 333 331 337 343 345 247 329 2 12 296 305 309 314 322 321 320 344 312 318 324 308 267 284 310 294 336 306 316 321 306 283 324 276 288 277 285 244 194 200 212 224
328 328 329 329 330 329 327 327 332 337 347 294 29 326 90 271 302 309 308 327 310 306 306 317 302 295 261 282 291 269 286 238 245 235 304 287 320 330 308 316 292 301 251 197 203 197 211
327 327 327 327 328 325 320 321 324 322 312 278 286 204 157 273 269 299 302 310 315 311 303 301 307 297 294 320 297 277 276 259 248 220 241 279 295 296 287 43 135 256 344 326 209 196 203
326 326 328 328 325 320 317 316 314 314 305 283 277 179 160 259 253 286 302 329 308 311 307 302 337 297 301 269 278 297 268 242 232 196 220 256 272 297 299 204 307 270 4 337 70 46 10
326 327 327 326 320 317 315 314 312 312 305 289 280 227 166 239 233 269 314 292 303 314 314 320 359 349 24 10 291 278 333 313 338 183 198 247 258 245 349 287 184 356 343 330 306 49 12
328 328 327 324 320 318 315 313 311 310 301 285 282 241 150 224 262 255 259 316 292 311 296 305 346 342 52 336 289 353 8 290 309 339 172 198 298 308 297 311 360 341 342 2 60 39 22
329 329 326 324 322 319 317 314 313 308 301 281 272 256 198 208 282 262 273 283 290 290 306 335 325 360 2 8 355 333 4 321 298 34 358 45 255 206 321 338 360 337 357 48 10 38 42
329 327 325 326 323 318 318 318 317 308 297 291 251 258 225 173 272 305 287 274 271 279 286 309 297 332 4 1 349 346 303 337 338 20 353 20 120 203 342 344 317 46 314 10 19 25 14